Kamiah, ID

1:28 AM PST on January 30, 2015 (GMT -0800)
Lewiston-Nez Perce County | Change Station
CLOSE
Current Station
Airport
Location: Lewiston,
Elevation: 1437 ft
Nearby Weather Stations

Elev 1437 ft 46.37 °N, 117.02 °W | Updated 32 minutes ago

Partly Cloudy
Partly Cloudy
38 °F
Feels Like 36 °F
N
4
Wind Variable Wind from NNE

Today
High -- | Low -- °F
--% Chance of Precip.
Yesterday
High -- | Low -- °F
Precip. -- in
7:09 AM 4:45 PM
Waxing Gibbous, 81% visible
Pressure 30.41 in
Visibility 10.0 miles
Clouds Overcast 900 ft
Windchill 36 °F
Dew Point 35 °F
Humidity 89%
Rainfall 0.00 in
Snow Depth Not available.
UV 0 out of 12
Pollen 1.70 out of 12
Air Quality Not available.
Flu Activity Not available.
METAR KLWS 300856Z AUTO 03003KT 10SM OVC009 03/02 A3038 RMK AO2 SLP298 T00330017 58002

More Conditions Fewer Conditions

Pressure 30.41 in
Visibility 10.0 miles
Clouds Overcast 900 ft
Windchill 36 °F
Dew Point 35 °F
Humidity 89%
Rainfall 0.00 in
Snow Depth Not available.
UV 0 out of 12
Pollen 1.70 out of 12
Air Quality Not available.
Flu Activity Not available.
METAR KLWS 300856Z AUTO 03003KT 10SM OVC009 03/02 A3038 RMK AO2 SLP298 T00330017 58002

More Conditions Fewer Conditions

10-Day Weather Forecast

Almanac

Astronomy

Jan. 30, 2015 Rise Set
Actual Time
Civil Twilight
Nautical Twilight
Astronomical Twilight
Moon
Length of Visible Light
Length of Day
Tomorrow will be .
, % of the Moon is Illuminated

Today's Extremes

State Highs State Lows

Community

WunderPhotos

Upload Photos

1,791,737 photos uploaded!

WunderBlogs® & News

Nearby

Air Quality

  Air Quality AQ Index Pollutant
Not available.

Snow Depth

Station Depth Elevation

Earthquake Activity

City Distance Mag. Time & Date
Minimum magnitude displayed is 2.5.

Coastal Water Temperatures

Place Temperature

Nearby Weather Stations